JBU363 KBOS-TLPL

Flight info

Callsign JBU363
Flight time N/A
Altitude 35000
Route BRUWN7 BRUWN DCT BORQE Y578 KAYYT/M078F340 DCT DASER DCT BALTN/M078F360 DCT MEGGG/M078F350 L456 HANCY/N0459F350 L456 THANK/N0458F370 DCT ELOPO UB520 ANU UA312 FOF UA324 BNE
Aircraft A321/M-SDE3FGHIRWY/LB1

Departure

Time N/A
Airport Boston Logan International Airport (KBOS)

Arrival

Time 2026-04-24 17:06
Airport Hewanorra International Airport (TLPL)
Time Latitude Longitude Altitude Speed Heading
2026-04-24 13:02 41.58015 -70.19521 9731 ft 359 kts 146°
2026-04-24 13:02 41.56629 -70.18218 10036 ft 361 kts 146°
2026-04-24 13:02 41.54566 -70.16275 10496 ft 365 kts 146°
2026-04-24 13:02 41.52481 -70.14312 10940 ft 369 kts 146°
2026-04-24 13:03 41.50390 -70.12302 11392 ft 372 kts 144°
2026-04-24 13:03 41.48314 -70.10220 11878 ft 376 kts 143°
2026-04-24 13:03 41.46232 -70.08080 12324 ft 381 kts 143°
2026-04-24 13:03 41.44121 -70.05885 12809 ft 388 kts 143°
2026-04-24 13:04 41.41976 -70.03653 13298 ft 394 kts 143°
2026-04-24 13:04 41.39801 -70.01402 13784 ft 398 kts 144°
2026-04-24 13:04 41.37595 -69.99133 14220 ft 403 kts 144°
2026-04-24 13:04 41.35354 -69.96844 14662 ft 409 kts 145°
2026-04-24 13:05 41.33108 -69.94561 15103 ft 415 kts 145°
2026-04-24 13:05 41.30796 -69.92213 15561 ft 421 kts 145°
2026-04-24 13:05 41.28451 -69.89825 16018 ft 428 kts 145°
2026-04-24 13:05 41.26071 -69.87403 16482 ft 434 kts 146°
2026-04-24 13:06 41.23657 -69.84950 17003 ft 439 kts 146°
2026-04-24 13:06 41.21218 -69.82474 17439 ft 444 kts 147°
2026-04-24 13:06 41.18754 -69.79974 17928 ft 449 kts 147°
2026-04-24 13:06 41.16252 -69.77439 18393 ft 454 kts 147°
2026-04-24 13:07 41.13729 -69.74886 18819 ft 458 kts 147°
2026-04-24 13:07 41.11181 -69.72306 19252 ft 463 kts 147°
2026-04-24 13:07 41.08610 -69.69704 19692 ft 467 kts 148°
2026-04-24 13:07 41.06021 -69.67088 20141 ft 471 kts 148°
2026-04-24 13:08 41.03399 -69.64443 20593 ft 474 kts 148°
2026-04-24 13:08 41.00772 -69.61787 21051 ft 478 kts 146°
2026-04-24 13:08 40.98268 -69.58837 21517 ft 486 kts 138°
2026-04-24 13:09 40.93660 -69.52202 22518 ft 492 kts 136°
2026-04-24 13:09 40.91344 -69.48851 23004 ft 495 kts 136°
2026-04-24 13:09 40.89017 -69.45488 23505 ft 497 kts 136°
2026-04-24 13:09 40.86678 -69.42116 23918 ft 499 kts 136°
2026-04-24 13:10 40.84321 -69.38728 24230 ft 504 kts 136°
2026-04-24 13:10 40.81939 -69.35312 24566 ft 507 kts 136°
2026-04-24 13:10 40.79542 -69.31876 24917 ft 509 kts 136°
2026-04-24 13:10 40.77141 -69.28437 25264 ft 511 kts 136°
2026-04-24 13:11 40.74728 -69.24978 25619 ft 513 kts 136°
2026-04-24 13:11 40.72312 -69.21509 25967 ft 514 kts 136°
2026-04-24 13:11 40.69886 -69.18032 26318 ft 516 kts 136°
2026-04-24 13:11 40.67447 -69.14548 26572 ft 518 kts 136°
2026-04-24 13:12 40.64995 -69.11055 26880 ft 520 kts 136°
2026-04-24 13:12 40.62533 -69.07560 27192 ft 522 kts 136°
2026-04-24 13:12 40.60057 -69.04053 27503 ft 524 kts 136°
2026-04-24 13:12 40.57572 -69.00535 27805 ft 526 kts 136°
2026-04-24 13:13 40.55079 -68.97005 28108 ft 527 kts 136°
2026-04-24 13:13 40.52581 -68.93461 28402 ft 530 kts 136°
2026-04-24 13:13 40.50097 -68.89939 28543 ft 535 kts 136°
2026-04-24 13:13 40.47553 -68.86337 28691 ft 540 kts 136°
2026-04-24 13:14 40.44981 -68.82706 28865 ft 545 kts 136°
2026-04-24 13:14 40.42351 -68.78998 29039 ft 549 kts 136°
2026-04-24 13:14 40.39783 -68.75375 29217 ft 552 kts 136°
2026-04-24 13:14 40.37163 -68.71685 29469 ft 554 kts 136°
2026-04-24 13:15 40.34533 -68.67984 29726 ft 555 kts 136°
2026-04-24 13:15 40.31894 -68.64275 29993 ft 557 kts 136°
2026-04-24 13:15 40.29245 -68.60559 30228 ft 559 kts 136°
2026-04-24 13:15 40.26588 -68.56836 30471 ft 560 kts 136°
2026-04-24 13:16 40.23927 -68.53116 30778 ft 559 kts 136°
2026-04-24 13:16 40.21272 -68.49408 31154 ft 558 kts 136°
2026-04-24 13:16 40.18623 -68.45712 31484 ft 556 kts 136°
2026-04-24 13:16 40.15982 -68.42024 31828 ft 555 kts 136°
2026-04-24 13:17 40.13348 -68.38350 32159 ft 553 kts 136°
2026-04-24 13:17 40.10721 -68.34702 32454 ft 551 kts 137°
2026-04-24 13:17 40.08089 -68.31057 32761 ft 550 kts 137°
2026-04-24 13:17 40.05466 -68.27427 33082 ft 549 kts 137°
2026-04-24 13:18 40.02848 -68.23808 33399 ft 548 kts 137°
2026-04-24 13:18 40.00237 -68.20199 33716 ft 546 kts 137°
2026-04-24 13:18 39.97617 -68.16633 34004 ft 544 kts 141°
2026-04-24 13:18 39.94776 -68.13429 34229 ft 537 kts 149°
2026-04-24 13:19 39.91702 -68.10726 34457 ft 529 kts 157°
2026-04-24 13:19 39.88456 -68.08544 34683 ft 521 kts 164°
2026-04-24 13:19 39.85111 -68.06794 34808 ft 518 kts 167°
2026-04-24 13:19 39.81756 -68.05080 34889 ft 519 kts 167°
2026-04-24 13:20 39.75032 -68.01620 34906 ft 520 kts 167°
2026-04-24 13:20 39.68306 -67.98150 34903 ft 520 kts 167°
2026-04-24 13:21 39.61579 -67.94691 34857 ft 520 kts 167°
2026-04-24 13:21 39.54903 -67.91270 34897 ft 520 kts 167°
2026-04-24 13:22 39.48170 -67.87835 34899 ft 520 kts 167°
2026-04-24 13:22 39.41431 -67.84409 34903 ft 520 kts 167°
2026-04-24 13:23 39.34687 -67.80980 34872 ft 521 kts 167°
2026-04-24 13:23 39.27940 -67.77551 34889 ft 521 kts 167°
2026-04-24 13:24 39.21186 -67.74134 34897 ft 521 kts 168°
2026-04-24 13:24 39.14441 -67.70732 34862 ft 521 kts 167°
2026-04-24 13:25 39.07690 -67.67323 34886 ft 521 kts 167°
2026-04-24 13:25 39.00939 -67.63923 34895 ft 521 kts 167°
2026-04-24 13:26 38.94187 -67.60527 34906 ft 521 kts 167°
2026-04-24 13:26 38.87372 -67.57862 34757 ft 500 kts 181°
2026-04-24 13:27 38.83962 -67.57345 34663 ft 488 kts 188°
2026-04-24 13:27 38.80609 -67.57290 34560 ft 482 kts 192°
2026-04-24 13:27 38.77257 -67.57303 34437 ft 482 kts 192°
2026-04-24 13:27 38.73904 -67.57311 34318 ft 482 kts 191°
2026-04-24 13:28 38.70550 -67.57315 34200 ft 482 kts 192°
2026-04-24 13:28 38.67195 -67.57317 34030 ft 482 kts 191°
2026-04-24 13:28 38.63842 -67.57315 33834 ft 481 kts 191°
2026-04-24 13:28 38.60498 -67.57312 33892 ft 481 kts 191°
2026-04-24 13:29 38.53846 -67.57318 33885 ft 481 kts 191°
2026-04-24 13:29 38.47150 -67.57327 33884 ft 481 kts 191°
2026-04-24 13:30 38.40453 -67.57342 33885 ft 481 kts 191°
2026-04-24 13:30 38.33753 -67.57352 33890 ft 482 kts 191°
2026-04-24 13:31 38.27004 -67.57357 33895 ft 482 kts 191°
2026-04-24 13:31 38.20355 -67.57360 33868 ft 481 kts 190°
2026-04-24 13:32 38.13661 -67.57356 33891 ft 481 kts 191°
2026-04-24 13:32 38.06973 -67.57361 33896 ft 480 kts 191°
2026-04-24 13:33 38.00294 -67.57378 33870 ft 479 kts 190°
2026-04-24 13:33 37.93621 -67.57391 33892 ft 479 kts 190°
2026-04-24 13:34 37.86947 -67.57397 33903 ft 479 kts 190°
2026-04-24 13:34 37.80287 -67.57395 33861 ft 478 kts 190°
2026-04-24 13:35 37.73638 -67.57389 33886 ft 477 kts 190°
2026-04-24 13:35 37.67004 -67.57397 33895 ft 476 kts 190°
2026-04-24 13:36 37.60376 -67.57408 33854 ft 476 kts 190°
2026-04-24 13:36 37.53757 -67.57412 33871 ft 475 kts 190°
2026-04-24 13:37 37.47147 -67.57432 33878 ft 475 kts 190°
2026-04-24 13:37 37.40536 -67.57448 33884 ft 475 kts 190°
2026-04-24 13:38 37.33930 -67.57449 33858 ft 475 kts 190°
2026-04-24 13:38 37.27310 -67.57456 33870 ft 476 kts 190°
2026-04-24 13:39 37.20684 -67.57466 33885 ft 476 kts 190°
2026-04-24 13:39 37.14055 -67.57476 33853 ft 476 kts 189°
2026-04-24 13:40 37.07467 -67.57478 33862 ft 477 kts 189°
2026-04-24 13:40 37.00832 -67.57479 33873 ft 477 kts 189°
2026-04-24 13:41 36.94196 -67.57482 33877 ft 477 kts 189°
2026-04-24 13:41 36.87562 -67.57488 33854 ft 477 kts 189°
2026-04-24 13:42 36.80929 -67.57499 33870 ft 476 kts 189°
2026-04-24 13:42 36.74297 -67.57511 33877 ft 476 kts 189°
2026-04-24 13:43 36.67668 -67.57511 33860 ft 476 kts 189°
2026-04-24 13:43 36.61059 -67.57516 33882 ft 475 kts 189°
2026-04-24 13:44 36.54458 -67.57525 33895 ft 474 kts 189°
2026-04-24 13:44 36.47866 -67.57537 33875 ft 473 kts 189°
2026-04-24 13:45 36.41286 -67.57546 33874 ft 472 kts 189°
2026-04-24 13:45 36.34715 -67.57538 33893 ft 472 kts 189°
2026-04-24 13:46 36.28151 -67.57544 33900 ft 471 kts 189°
2026-04-24 13:46 36.21596 -67.57558 33895 ft 471 kts 189°
2026-04-24 13:47 36.16151 -67.57566 33899 ft 471 kts 189°
2026-04-24 13:47 36.09594 -67.57569 33899 ft 471 kts 189°
2026-04-24 13:48 36.03039 -67.57571 33894 ft 471 kts 189°
2026-04-24 13:48 35.96493 -67.57577 33886 ft 470 kts 189°
2026-04-24 13:49 35.89957 -67.57588 33895 ft 469 kts 188°
2026-04-24 13:49 35.83425 -67.57594 33901 ft 469 kts 188°
2026-04-24 13:50 35.76900 -67.57597 33871 ft 469 kts 188°
2026-04-24 13:50 35.70374 -67.57604 33899 ft 469 kts 188°
2026-04-24 13:51 35.63853 -67.57615 33902 ft 468 kts 188°
2026-04-24 13:51 35.57380 -67.57633 33916 ft 468 kts 188°
2026-04-24 13:52 35.50866 -67.57644 33899 ft 468 kts 188°
2026-04-24 13:52 35.44353 -67.57651 33911 ft 468 kts 188°
2026-04-24 13:53 35.37848 -67.57654 33924 ft 468 kts 188°
2026-04-24 13:53 35.31335 -67.57650 33887 ft 468 kts 188°
2026-04-24 13:54 35.24824 -67.57649 33911 ft 468 kts 188°
2026-04-24 13:54 35.18314 -67.57666 33926 ft 468 kts 188°
2026-04-24 13:55 35.11803 -67.57675 33931 ft 468 kts 188°
2026-04-24 13:55 35.05333 -67.57675 33921 ft 468 kts 188°
2026-04-24 13:56 34.98820 -67.57676 33939 ft 468 kts 188°
2026-04-24 13:56 34.92307 -67.57677 33943 ft 468 kts 188°
2026-04-24 13:57 34.85802 -67.57687 33952 ft 468 kts 188°
2026-04-24 13:57 34.79295 -67.57705 33937 ft 467 kts 188°
2026-04-24 13:58 34.72789 -67.57713 33955 ft 467 kts 187°
2026-04-24 13:58 34.66284 -67.57711 33962 ft 467 kts 188°
2026-04-24 13:59 34.59781 -67.57719 33947 ft 467 kts 187°
2026-04-24 13:59 34.53283 -67.57725 33959 ft 467 kts 187°
2026-04-24 14:00 34.46797 -67.57729 33968 ft 466 kts 187°
2026-04-24 14:00 34.40306 -67.57739 33976 ft 466 kts 188°
2026-04-24 14:01 34.33819 -67.57748 33958 ft 466 kts 187°
2026-04-24 14:01 34.27340 -67.57751 33988 ft 465 kts 187°
2026-04-24 14:02 34.20866 -67.57761 33980 ft 465 kts 187°
2026-04-24 14:02 34.14397 -67.57764 33983 ft 465 kts 187°
2026-04-24 14:03 34.07935 -67.57797 33973 ft 464 kts 187°
2026-04-24 14:03 34.01481 -67.57862 33977 ft 464 kts 187°
2026-04-24 14:04 33.95035 -67.57919 33981 ft 463 kts 187°
2026-04-24 14:04 33.88585 -67.57982 33987 ft 463 kts 187°
2026-04-24 14:05 33.82134 -67.58030 33993 ft 463 kts 187°
2026-04-24 14:05 33.75687 -67.58085 33996 ft 463 kts 187°
2026-04-24 14:06 33.69241 -67.58143 34001 ft 463 kts 187°
2026-04-24 14:06 33.62795 -67.58189 33983 ft 463 kts 187°
2026-04-24 14:07 33.56362 -67.58234 33991 ft 463 kts 187°
2026-04-24 14:07 33.49927 -67.58284 34007 ft 462 kts 187°
2026-04-24 14:08 33.43498 -67.58341 34014 ft 462 kts 187°
2026-04-24 14:08 33.37075 -67.58400 33999 ft 461 kts 187°
2026-04-24 14:09 33.30700 -67.58459 34014 ft 461 kts 187°
2026-04-24 14:09 33.24289 -67.58512 34017 ft 460 kts 187°
2026-04-24 14:10 33.17884 -67.58559 34017 ft 460 kts 187°
2026-04-24 14:10 33.11489 -67.58612 33999 ft 460 kts 187°
2026-04-24 14:11 33.05089 -67.58665 34009 ft 460 kts 187°
2026-04-24 14:12 32.95465 -67.58746 34002 ft 462 kts 187°
2026-04-24 14:12 32.89018 -67.58797 33980 ft 464 kts 186°
2026-04-24 14:13 32.82557 -67.58845 33991 ft 465 kts 186°
2026-04-24 14:13 32.76081 -67.58897 34002 ft 466 kts 187°
2026-04-24 14:14 32.69607 -67.58957 34018 ft 466 kts 187°
2026-04-24 14:14 32.59876 -67.59035 34015 ft 466 kts 186°
2026-04-24 14:15 32.53383 -67.59082 34035 ft 467 kts 186°
2026-04-24 14:15 32.46887 -67.59130 34042 ft 467 kts 186°
2026-04-24 14:16 32.40390 -67.59188 34015 ft 467 kts 186°
2026-04-24 14:17 32.30647 -67.59269 34042 ft 467 kts 186°
2026-04-24 14:17 32.20906 -67.59343 34050 ft 467 kts 186°
2026-04-24 14:18 32.14415 -67.59401 34045 ft 466 kts 186°
2026-04-24 14:18 32.07927 -67.59459 34051 ft 466 kts 186°
2026-04-24 14:19 32.01442 -67.59505 34055 ft 466 kts 186°
2026-04-24 14:19 31.94964 -67.59544 34064 ft 466 kts 186°
2026-04-24 14:20 31.88481 -67.59597 34038 ft 466 kts 185°
2026-04-24 14:20 31.82048 -67.59653 34058 ft 465 kts 185°
2026-04-24 14:21 31.75577 -67.59708 34069 ft 465 kts 185°
2026-04-24 14:21 31.69108 -67.59757 34075 ft 465 kts 185°
2026-04-24 14:22 31.62649 -67.59808 34061 ft 464 kts 185°
2026-04-24 14:23 31.52960 -67.59888 34082 ft 464 kts 185°
2026-04-24 14:23 31.46508 -67.59946 34083 ft 463 kts 185°
2026-04-24 14:24 31.40058 -67.59997 34086 ft 463 kts 185°
2026-04-24 14:24 31.33608 -67.60047 34094 ft 463 kts 185°
2026-04-24 14:25 31.28208 -67.60084 34094 ft 463 kts 185°
2026-04-24 14:25 31.20710 -67.60137 34096 ft 463 kts 185°
2026-04-24 14:26 31.14265 -67.60193 34093 ft 463 kts 185°
2026-04-24 14:26 31.07837 -67.60245 34085 ft 462 kts 184°
2026-04-24 14:27 31.01412 -67.60293 34092 ft 461 kts 184°
2026-04-24 14:27 30.94993 -67.60341 34092 ft 461 kts 184°
2026-04-24 14:28 30.88579 -67.60392 34099 ft 461 kts 184°
2026-04-24 14:28 30.82169 -67.60444 34092 ft 460 kts 184°
2026-04-24 14:29 30.75765 -67.60496 34094 ft 460 kts 184°
2026-04-24 14:29 30.69364 -67.60545 34093 ft 460 kts 184°
2026-04-24 14:30 30.64046 -67.60481 34103 ft 461 kts 182°
2026-04-24 14:30 30.56559 -67.60174 34097 ft 461 kts 181°
2026-04-24 14:31 30.50153 -67.59893 34100 ft 460 kts 181°
2026-04-24 14:31 30.43751 -67.59670 34103 ft 460 kts 182°
2026-04-24 14:32 30.37394 -67.59476 34105 ft 460 kts 182°
2026-04-24 14:32 30.30998 -67.59269 34083 ft 460 kts 182°
2026-04-24 14:33 30.24600 -67.59052 34095 ft 460 kts 182°
2026-04-24 14:33 30.18208 -67.58837 34096 ft 460 kts 182°
2026-04-24 14:34 30.11809 -67.58623 34096 ft 460 kts 182°
2026-04-24 14:34 30.05409 -67.58407 34082 ft 460 kts 183°
2026-04-24 14:35 29.99005 -67.58188 34087 ft 461 kts 183°
2026-04-24 14:35 29.92595 -67.57981 34096 ft 461 kts 183°
2026-04-24 14:36 29.87270 -67.57807 34098 ft 461 kts 183°
2026-04-24 14:36 29.80856 -67.57599 34077 ft 461 kts 184°
2026-04-24 14:37 29.74438 -67.57376 34088 ft 462 kts 184°
2026-04-24 14:37 29.68015 -67.57165 34095 ft 462 kts 184°
2026-04-24 14:38 29.61589 -67.56956 34108 ft 462 kts 184°
2026-04-24 14:38 29.55159 -67.56745 34115 ft 462 kts 184°
2026-04-24 14:39 29.48729 -67.56528 34118 ft 462 kts 185°
2026-04-24 14:39 29.42300 -67.56315 34120 ft 462 kts 185°
2026-04-24 14:40 29.35880 -67.56104 34122 ft 462 kts 185°
2026-04-24 14:40 29.29450 -67.55895 34125 ft 462 kts 185°
2026-04-24 14:41 29.23061 -67.55684 34108 ft 462 kts 185°
2026-04-24 14:41 29.16627 -67.55470 34117 ft 463 kts 185°
2026-04-24 14:42 29.10190 -67.55261 34123 ft 463 kts 185°
2026-04-24 14:42 29.03752 -67.55047 34128 ft 463 kts 185°
2026-04-24 14:43 28.97315 -67.54842 34108 ft 462 kts 186°
2026-04-24 14:43 28.90891 -67.54630 34125 ft 462 kts 186°
2026-04-24 14:44 28.84464 -67.54421 34131 ft 462 kts 186°
2026-04-24 14:44 28.78040 -67.54211 34135 ft 462 kts 186°
2026-04-24 14:45 28.71615 -67.53996 34131 ft 462 kts 186°
2026-04-24 14:45 28.65192 -67.53792 34133 ft 462 kts 186°
2026-04-24 14:46 28.58769 -67.53591 34141 ft 462 kts 186°
2026-04-24 14:46 28.52345 -67.53380 34139 ft 462 kts 186°
2026-04-24 14:47 28.45928 -67.53166 34116 ft 462 kts 186°
2026-04-24 14:47 28.39550 -67.52958 34129 ft 461 kts 186°
2026-04-24 14:48 28.33111 -67.52181 34134 ft 472 kts 176°
2026-04-24 14:48 28.26670 -67.50712 34139 ft 472 kts 176°
2026-04-24 14:49 28.20229 -67.49250 34139 ft 472 kts 176°
2026-04-24 14:49 28.13787 -67.47797 34112 ft 472 kts 177°
2026-04-24 14:50 28.07344 -67.46342 34125 ft 472 kts 177°
2026-04-24 14:50 28.00897 -67.44891 34132 ft 472 kts 177°
2026-04-24 14:51 27.94449 -67.43441 34135 ft 472 kts 177°
2026-04-24 14:51 27.88002 -67.41988 34113 ft 472 kts 177°
2026-04-24 14:52 27.81556 -67.40541 34126 ft 472 kts 177°
2026-04-24 14:52 27.75118 -67.39097 34137 ft 472 kts 176°
2026-04-24 14:53 27.68673 -67.37650 34140 ft 472 kts 176°
2026-04-24 14:53 27.62230 -67.36204 34140 ft 472 kts 177°
2026-04-24 14:54 27.55788 -67.34769 34124 ft 472 kts 176°
2026-04-24 14:54 27.49393 -67.33336 34133 ft 471 kts 176°
2026-04-24 14:55 27.44005 -67.32131 34136 ft 471 kts 176°
2026-04-24 14:55 27.36531 -67.30467 34138 ft 471 kts 176°
2026-04-24 14:56 27.30101 -67.29044 34106 ft 471 kts 176°
2026-04-24 14:56 27.23683 -67.27615 34130 ft 470 kts 176°
2026-04-24 14:57 27.17273 -67.26190 34131 ft 469 kts 176°
2026-04-24 14:57 27.10869 -67.24770 34132 ft 469 kts 176°
2026-04-24 14:58 27.04476 -67.23351 34135 ft 469 kts 176°
2026-04-24 14:58 26.98083 -67.21934 34124 ft 468 kts 176°
2026-04-24 14:59 26.91697 -67.20527 34128 ft 467 kts 176°
2026-04-24 14:59 26.85316 -67.19124 34131 ft 467 kts 176°
2026-04-24 15:00 26.78940 -67.17722 34131 ft 467 kts 176°
2026-04-24 15:00 26.72566 -67.16323 34113 ft 466 kts 176°
2026-04-24 15:01 26.66201 -67.14914 34133 ft 466 kts 176°
2026-04-24 15:01 26.59850 -67.13515 34131 ft 465 kts 176°
2026-04-24 15:02 26.53490 -67.12122 34139 ft 465 kts 176°
2026-04-24 15:02 26.47147 -67.10729 34126 ft 465 kts 176°
2026-04-24 15:03 26.40799 -67.09331 34107 ft 465 kts 176°
2026-04-24 15:03 26.34445 -67.07948 34109 ft 465 kts 176°
2026-04-24 15:04 26.28087 -67.06564 34123 ft 466 kts 176°
2026-04-24 15:04 26.21728 -67.05175 34122 ft 466 kts 176°
2026-04-24 15:05 26.15367 -67.03788 34126 ft 466 kts 176°
2026-04-24 15:05 26.09053 -67.02412 34108 ft 466 kts 177°
2026-04-24 15:06 26.02691 -67.01020 34234 ft 465 kts 177°
2026-04-24 15:06 25.99514 -67.00330 34343 ft 465 kts 178°
2026-04-24 15:06 25.96340 -66.99647 34458 ft 464 kts 178°
2026-04-24 15:06 25.93170 -66.98962 34573 ft 464 kts 178°
2026-04-24 15:07 25.90003 -66.98277 34691 ft 463 kts 178°
2026-04-24 15:07 25.86840 -66.97591 34807 ft 463 kts 178°
2026-04-24 15:07 25.83680 -66.96906 34920 ft 462 kts 178°
2026-04-24 15:07 25.80531 -66.96226 35073 ft 462 kts 178°
2026-04-24 15:08 25.77376 -66.95544 35102 ft 462 kts 178°
2026-04-24 15:09 25.64605 -66.92772 35101 ft 461 kts 178°
2026-04-24 15:09 25.58319 -66.91419 35101 ft 461 kts 178°
2026-04-24 15:10 25.52032 -66.90064 35105 ft 460 kts 178°
2026-04-24 15:10 25.45794 -66.88730 35115 ft 460 kts 178°
2026-04-24 15:11 25.39514 -66.87371 35113 ft 460 kts 178°
2026-04-24 15:11 25.33234 -66.86012 35117 ft 460 kts 178°
2026-04-24 15:12 25.26953 -66.84661 35120 ft 460 kts 178°
2026-04-24 15:12 25.17545 -66.82647 35107 ft 459 kts 179°
2026-04-24 15:13 25.11288 -66.81315 35120 ft 458 kts 179°
2026-04-24 15:13 25.05029 -66.79978 35117 ft 458 kts 179°
2026-04-24 15:14 24.98775 -66.78637 35121 ft 458 kts 179°
2026-04-24 15:14 24.92525 -66.77300 35109 ft 457 kts 179°
2026-04-24 15:15 24.86283 -66.75971 35113 ft 456 kts 179°
2026-04-24 15:15 24.80049 -66.74641 35116 ft 456 kts 179°
2026-04-24 15:16 24.73819 -66.73308 35114 ft 456 kts 179°
2026-04-24 15:16 24.67600 -66.71987 35114 ft 456 kts 179°
2026-04-24 15:17 24.61382 -66.70663 35103 ft 454 kts 179°
2026-04-24 15:17 24.56222 -66.69577 35110 ft 453 kts 180°
2026-04-24 15:18 24.50036 -66.68277 35117 ft 453 kts 179°
2026-04-24 15:18 24.43851 -66.66974 35114 ft 452 kts 179°
2026-04-24 15:19 24.37672 -66.65656 35111 ft 452 kts 179°
2026-04-24 15:19 24.31500 -66.64342 35082 ft 451 kts 179°
2026-04-24 15:20 24.25334 -66.63043 35098 ft 451 kts 179°
2026-04-24 15:20 24.19171 -66.61754 35105 ft 451 kts 179°
2026-04-24 15:21 24.13012 -66.60457 35106 ft 451 kts 179°
2026-04-24 15:21 24.06854 -66.59153 35109 ft 451 kts 179°
2026-04-24 15:22 24.00707 -66.57858 35094 ft 450 kts 179°
2026-04-24 15:23 23.91476 -66.55924 35090 ft 450 kts 180°
2026-04-24 15:23 23.82236 -66.53977 35093 ft 451 kts 180°
2026-04-24 15:25 23.66817 -66.50759 35075 ft 452 kts 179°
2026-04-24 15:26 23.51376 -66.47518 35084 ft 452 kts 180°
2026-04-24 15:27 23.32799 -66.43664 35076 ft 454 kts 179°
2026-04-24 15:29 23.14175 -66.39790 35063 ft 454 kts 179°
2026-04-24 15:31 22.92480 -66.35296 35087 ft 454 kts 179°
2026-04-24 15:33 22.67658 -66.30170 35085 ft 454 kts 179°
2026-04-24 15:34 22.52145 -66.26981 35057 ft 454 kts 179°
2026-04-24 15:35 22.36628 -66.23802 35065 ft 454 kts 179°
2026-04-24 15:36 22.30413 -66.22535 35070 ft 455 kts 179°
2026-04-24 15:36 22.21089 -66.20621 35051 ft 455 kts 179°
2026-04-24 15:37 22.14869 -66.19338 35057 ft 455 kts 179°
2026-04-24 15:37 22.08649 -66.18071 35065 ft 455 kts 180°
2026-04-24 15:38 22.02429 -66.16804 35065 ft 455 kts 180°
2026-04-24 15:38 21.96209 -66.15533 35067 ft 455 kts 180°
2026-04-24 15:39 21.89990 -66.14265 35049 ft 455 kts 179°
2026-04-24 15:39 21.83781 -66.13006 35063 ft 454 kts 179°
2026-04-24 15:40 21.77567 -66.11742 35067 ft 454 kts 179°
2026-04-24 15:40 21.71354 -66.10484 35068 ft 454 kts 179°
2026-04-24 15:41 21.65143 -66.09221 35077 ft 454 kts 179°
2026-04-24 15:41 21.58975 -66.07965 35051 ft 454 kts 179°
2026-04-24 15:42 21.52777 -66.06712 35124 ft 452 kts 179°
2026-04-24 15:42 21.49693 -66.05960 35242 ft 460 kts 173°
2026-04-24 15:42 21.46668 -66.04722 35357 ft 472 kts 164°
2026-04-24 15:43 21.43779 -66.02961 35477 ft 484 kts 155°
2026-04-24 15:43 21.41105 -66.00697 35595 ft 495 kts 147°
2026-04-24 15:43 21.38543 -65.98243 35714 ft 495 kts 147°
2026-04-24 15:43 21.35976 -65.95787 35831 ft 494 kts 147°
2026-04-24 15:44 21.33408 -65.93339 35952 ft 494 kts 148°
2026-04-24 15:44 21.30836 -65.90902 36065 ft 493 kts 148°
2026-04-24 15:44 21.28263 -65.88473 36186 ft 493 kts 148°
2026-04-24 15:44 21.25692 -65.86051 36284 ft 491 kts 148°
2026-04-24 15:45 21.23131 -65.83637 36407 ft 490 kts 148°
2026-04-24 15:45 21.20578 -65.81226 36531 ft 489 kts 148°
2026-04-24 15:45 21.18030 -65.78820 36659 ft 488 kts 148°
2026-04-24 15:45 21.15487 -65.76416 36777 ft 487 kts 148°
2026-04-24 15:46 21.12947 -65.74016 36915 ft 486 kts 148°
2026-04-24 15:46 21.10410 -65.71619 37030 ft 486 kts 148°
2026-04-24 15:46 21.05339 -65.66837 37054 ft 485 kts 148°
2026-04-24 15:47 21.00277 -65.62069 37038 ft 485 kts 148°
2026-04-24 15:47 20.95207 -65.57305 37048 ft 485 kts 148°
2026-04-24 15:48 20.90133 -65.52542 37044 ft 485 kts 148°
2026-04-24 15:48 20.85070 -65.47782 37050 ft 485 kts 148°
2026-04-24 15:49 20.80001 -65.43030 37060 ft 485 kts 148°
2026-04-24 15:49 20.74936 -65.38281 37063 ft 485 kts 148°
2026-04-24 15:50 20.69866 -65.33520 37066 ft 485 kts 148°
2026-04-24 15:50 20.64788 -65.28765 37061 ft 486 kts 148°
2026-04-24 15:51 20.59699 -65.24017 37062 ft 486 kts 148°
2026-04-24 15:51 20.54608 -65.19261 37043 ft 486 kts 148°
2026-04-24 15:52 20.49551 -65.14536 37054 ft 487 kts 148°
2026-04-24 15:52 20.44426 -65.09756 37062 ft 487 kts 148°
2026-04-24 15:53 20.39326 -65.05011 37063 ft 486 kts 148°
2026-04-24 15:53 20.34262 -65.00297 37069 ft 486 kts 148°
2026-04-24 15:54 20.29165 -64.95554 37060 ft 486 kts 148°
2026-04-24 15:54 20.24066 -64.90817 37066 ft 486 kts 148°
2026-04-24 15:55 20.18967 -64.86085 37056 ft 486 kts 148°
2026-04-24 15:55 20.13875 -64.81357 37070 ft 485 kts 148°
2026-04-24 15:56 20.08783 -64.76644 37068 ft 485 kts 148°
2026-04-24 15:56 20.03694 -64.71933 37067 ft 485 kts 148°
2026-04-24 15:57 19.98611 -64.67234 37067 ft 484 kts 148°
2026-04-24 15:57 19.93524 -64.62534 37053 ft 484 kts 148°
2026-04-24 15:58 19.88441 -64.57834 37064 ft 484 kts 148°
2026-04-24 15:58 19.83357 -64.53140 37048 ft 484 kts 147°
2026-04-24 15:59 19.78271 -64.48460 37056 ft 484 kts 147°
2026-04-24 15:59 19.73187 -64.43784 37059 ft 483 kts 147°
2026-04-24 16:00 19.68104 -64.39113 37061 ft 483 kts 147°
2026-04-24 16:00 19.63025 -64.34449 37055 ft 483 kts 147°
2026-04-24 16:01 19.57941 -64.29785 37053 ft 483 kts 147°
2026-04-24 16:01 19.52855 -64.25122 37054 ft 483 kts 147°
2026-04-24 16:02 19.47772 -64.20450 37054 ft 484 kts 147°
2026-04-24 16:02 19.43549 -64.16576 37055 ft 483 kts 147°
2026-04-24 16:03 19.38460 -64.11915 37051 ft 483 kts 147°
2026-04-24 16:03 19.33367 -64.07263 37054 ft 483 kts 147°
2026-04-24 16:04 19.28277 -64.02610 37049 ft 483 kts 147°
2026-04-24 16:04 19.23189 -63.97967 37054 ft 483 kts 147°
2026-04-24 16:05 19.15571 -63.91019 37055 ft 482 kts 147°
2026-04-24 16:06 19.07966 -63.84086 37062 ft 480 kts 147°
2026-04-24 16:07 19.00387 -63.77183 37059 ft 479 kts 147°
2026-04-24 16:07 18.92824 -63.70307 37054 ft 477 kts 147°
2026-04-24 16:08 18.85270 -63.63462 37053 ft 476 kts 147°
2026-04-24 16:09 18.77726 -63.56646 37039 ft 476 kts 147°
2026-04-24 16:09 18.72703 -63.52101 37049 ft 475 kts 147°
2026-04-24 16:11 18.60167 -63.40764 37052 ft 474 kts 147°
2026-04-24 16:11 18.55154 -63.36236 37049 ft 474 kts 147°
2026-04-24 16:12 18.47637 -63.29459 37045 ft 474 kts 147°
2026-04-24 16:13 18.40116 -63.22680 37035 ft 474 kts 146°
2026-04-24 16:14 18.30107 -63.13669 37045 ft 473 kts 146°
2026-04-24 16:14 18.22599 -63.06932 37051 ft 473 kts 146°
2026-04-24 16:15 18.15097 -63.00197 37051 ft 473 kts 146°
2026-04-24 16:16 18.07583 -62.93473 37034 ft 473 kts 146°
2026-04-24 16:17 17.95081 -62.82276 37048 ft 471 kts 146°
2026-04-24 16:18 17.85092 -62.73363 37045 ft 471 kts 146°
2026-04-24 16:19 17.77609 -62.66676 37043 ft 471 kts 146°
2026-04-24 16:20 17.70152 -62.60031 37038 ft 471 kts 146°
2026-04-24 16:20 17.63143 -62.52775 37045 ft 481 kts 131°
2026-04-24 16:21 17.57240 -62.44212 37037 ft 481 kts 132°
2026-04-24 16:22 17.53333 -62.38576 37039 ft 481 kts 132°
2026-04-24 16:22 17.47430 -62.30068 37039 ft 481 kts 132°
2026-04-24 16:23 17.43496 -62.24397 37041 ft 481 kts 132°
2026-04-24 16:24 17.37590 -62.15894 37040 ft 481 kts 132°
2026-04-24 16:24 17.33623 -62.10194 37030 ft 482 kts 131°
2026-04-24 16:25 17.29674 -62.04531 37040 ft 481 kts 131°
2026-04-24 16:25 17.25758 -61.98904 37041 ft 481 kts 131°
2026-04-24 16:26 17.19819 -61.90373 37035 ft 481 kts 131°
2026-04-24 16:27 17.13508 -61.82384 37047 ft 470 kts 146°
2026-04-24 16:27 17.08077 -61.78837 37045 ft 454 kts 163°
2026-04-24 16:28 17.02122 -61.76857 37043 ft 448 kts 170°
2026-04-24 16:28 16.93091 -61.74127 37031 ft 449 kts 169°
2026-04-24 16:29 16.87083 -61.72301 37030 ft 450 kts 169°
2026-04-24 16:30 16.75101 -61.68658 37040 ft 450 kts 169°
2026-04-24 16:30 16.69088 -61.66845 37022 ft 450 kts 169°
2026-04-24 16:31 16.63073 -61.65042 37015 ft 450 kts 169°
2026-04-24 16:31 16.57066 -61.63229 37032 ft 450 kts 169°
2026-04-24 16:32 16.51050 -61.61409 37037 ft 450 kts 169°
2026-04-24 16:32 16.45032 -61.59588 37031 ft 450 kts 169°
2026-04-24 16:33 16.39023 -61.57780 37019 ft 450 kts 169°
2026-04-24 16:33 16.33008 -61.55970 37024 ft 450 kts 169°
2026-04-24 16:34 16.26992 -61.54163 37024 ft 450 kts 168°
2026-04-24 16:34 16.20979 -61.52321 37018 ft 451 kts 168°
2026-04-24 16:35 16.14973 -61.50443 37034 ft 451 kts 168°
2026-04-24 16:35 16.08966 -61.48560 37029 ft 451 kts 168°
2026-04-24 16:36 16.02952 -61.46685 37034 ft 451 kts 168°
2026-04-24 16:36 15.96942 -61.44815 37035 ft 451 kts 168°
2026-04-24 16:37 15.90922 -61.42953 37045 ft 451 kts 168°
2026-04-24 16:37 15.84904 -61.41090 37046 ft 451 kts 168°
2026-04-24 16:38 15.78904 -61.39226 36807 ft 446 kts 168°
2026-04-24 16:38 15.75980 -61.38318 36558 ft 443 kts 168°
2026-04-24 16:38 15.73026 -61.37400 36317 ft 443 kts 168°
2026-04-24 16:39 15.70034 -61.36471 36068 ft 443 kts 168°
2026-04-24 16:39 15.67087 -61.35557 35612 ft 442 kts 168°
2026-04-24 16:39 15.64136 -61.34642 34976 ft 444 kts 168°
2026-04-24 16:39 15.61167 -61.33724 34307 ft 447 kts 168°
2026-04-24 16:40 15.58163 -61.32798 33405 ft 453 kts 168°
2026-04-24 16:40 15.55128 -61.31864 32604 ft 457 kts 168°
2026-04-24 16:40 15.52083 -61.30926 31987 ft 456 kts 167°
2026-04-24 16:40 15.49054 -61.29986 31465 ft 453 kts 167°
2026-04-24 16:41 15.46042 -61.29051 30897 ft 451 kts 167°
2026-04-24 16:41 15.43043 -61.28124 30354 ft 449 kts 167°
2026-04-24 16:41 15.40054 -61.27202 29762 ft 447 kts 167°
2026-04-24 16:41 15.37084 -61.26284 29214 ft 443 kts 167°
2026-04-24 16:42 15.34143 -61.25372 28671 ft 439 kts 167°
2026-04-24 16:42 15.31267 -61.24481 28146 ft 435 kts 167°
2026-04-24 16:42 15.28377 -61.23590 27614 ft 431 kts 167°
2026-04-24 16:42 15.25511 -61.22708 27091 ft 428 kts 167°
2026-04-24 16:43 15.22668 -61.21834 26572 ft 425 kts 167°
2026-04-24 16:43 15.19847 -61.20968 26063 ft 421 kts 167°
2026-04-24 16:43 15.17048 -61.20108 25554 ft 418 kts 166°
2026-04-24 16:43 15.14269 -61.19252 25076 ft 415 kts 166°
2026-04-24 16:44 15.11516 -61.18403 24595 ft 412 kts 166°
2026-04-24 16:44 15.08769 -61.17556 24136 ft 410 kts 166°
2026-04-24 16:44 15.06051 -61.16717 23680 ft 407 kts 166°
2026-04-24 16:44 15.03342 -61.15878 23175 ft 405 kts 166°
2026-04-24 16:45 15.00656 -61.15047 22737 ft 401 kts 166°
2026-04-24 16:45 14.97995 -61.14226 22296 ft 397 kts 166°
2026-04-24 16:45 14.95356 -61.13413 21849 ft 394 kts 166°
2026-04-24 16:45 14.92739 -61.12609 21411 ft 391 kts 166°
2026-04-24 16:46 14.91016 -61.12081 21103 ft 389 kts 166°
2026-04-24 16:46 14.88397 -61.11280 20643 ft 386 kts 166°
2026-04-24 16:46 14.85831 -61.10495 20184 ft 383 kts 166°
2026-04-24 16:46 14.83279 -61.09715 19718 ft 381 kts 166°
2026-04-24 16:47 14.80746 -61.08937 19246 ft 380 kts 166°
2026-04-24 16:47 14.78219 -61.08160 18767 ft 378 kts 166°
2026-04-24 16:47 14.75702 -61.07388 18285 ft 376 kts 165°
2026-04-24 16:47 14.73196 -61.06620 17756 ft 374 kts 165°
2026-04-24 16:48 14.70711 -61.05857 17272 ft 371 kts 165°
2026-04-24 16:48 14.68279 -61.05110 16809 ft 368 kts 165°
2026-04-24 16:48 14.65800 -61.04349 16327 ft 365 kts 165°
2026-04-24 16:48 14.63372 -61.03604 15853 ft 363 kts 165°
2026-04-24 16:49 14.60961 -61.02865 15375 ft 360 kts 166°
2026-04-24 16:49 14.58565 -61.02285 14870 ft 357 kts 175°
2026-04-24 16:49 14.56098 -61.02121 14358 ft 355 kts 179°
2026-04-24 16:49 14.53636 -61.01993 13866 ft 354 kts 178°
2026-04-24 16:50 14.51980 -61.01906 13493 ft 353 kts 178°
2026-04-24 16:50 14.48747 -61.01732 12823 ft 350 kts 179°
2026-04-24 16:50 14.46327 -61.01601 12314 ft 347 kts 178°
2026-04-24 16:50 14.43926 -61.01472 11839 ft 344 kts 178°
2026-04-24 16:51 14.41542 -61.01345 11349 ft 342 kts 178°
2026-04-24 16:51 14.39177 -61.01217 10864 ft 339 kts 178°
2026-04-24 16:51 14.36826 -61.01089 10411 ft 337 kts 179°
2026-04-24 16:51 14.34531 -61.00964 10278 ft 324 kts 179°
2026-04-24 16:52 14.32324 -61.00846 10162 ft 311 kts 179°
2026-04-24 16:52 14.30202 -61.00732 10034 ft 300 kts 179°
2026-04-24 16:52 14.28139 -61.00622 9774 ft 295 kts 179°
2026-04-24 16:52 14.26098 -61.00514 9406 ft 292 kts 179°
2026-04-24 16:53 14.24077 -61.00407 9044 ft 290 kts 179°
2026-04-24 16:53 14.22069 -61.00300 8671 ft 288 kts 179°
2026-04-24 16:53 14.20069 -61.00197 8311 ft 287 kts 180°
2026-04-24 16:53 14.18105 -61.00446 7943 ft 284 kts 196°
2026-04-24 16:54 14.16285 -61.01200 7592 ft 281 kts 205°
2026-04-24 16:54 14.14506 -61.02037 7254 ft 279 kts 204°
2026-04-24 16:54 14.12740 -61.02861 6856 ft 280 kts 204°
2026-04-24 16:54 14.10970 -61.03684 6500 ft 280 kts 204°
2026-04-24 16:55 14.09207 -61.04503 6129 ft 276 kts 203°
2026-04-24 16:55 14.07463 -61.05310 5727 ft 274 kts 203°
2026-04-24 16:55 14.05733 -61.06111 5389 ft 273 kts 203°
2026-04-24 16:55 14.04003 -61.06911 5028 ft 272 kts 203°
2026-04-24 16:56 14.02274 -61.07711 4676 ft 272 kts 202°
2026-04-24 16:56 14.00569 -61.08499 4309 ft 272 kts 202°
2026-04-24 16:56 13.98910 -61.09425 3979 ft 271 kts 215°
2026-04-24 16:56 13.97418 -61.10592 3919 ft 271 kts 215°
2026-04-24 16:57 13.95908 -61.11759 3859 ft 272 kts 215°
2026-04-24 16:57 13.94393 -61.12923 3798 ft 272 kts 215°
2026-04-24 16:57 13.92875 -61.14087 3736 ft 272 kts 215°
2026-04-24 16:57 13.91356 -61.15249 3686 ft 272 kts 215°
2026-04-24 16:58 13.89839 -61.16413 3629 ft 272 kts 215°
2026-04-24 16:58 13.88327 -61.17576 3558 ft 271 kts 215°
2026-04-24 16:58 13.86815 -61.18737 3499 ft 271 kts 215°
2026-04-24 16:58 13.85303 -61.19898 3440 ft 271 kts 215°
2026-04-24 16:59 13.83697 -61.20890 3378 ft 268 kts 200°
2026-04-24 16:59 13.81953 -61.21363 3319 ft 252 kts 184°
2026-04-24 16:59 13.78641 -61.21393 3181 ft 228 kts 178°
2026-04-24 17:00 13.77080 -61.21390 3099 ft 219 kts 177°
2026-04-24 17:00 13.74344 -61.20638 3047 ft 201 kts 137°
2026-04-24 17:00 13.73566 -61.19540 2938 ft 182 kts 113°
2026-04-24 17:01 13.73325 -61.17011 2199 ft 179 kts 90°
2026-04-24 17:01 13.73326 -61.15737 1869 ft 175 kts 90°
2026-04-24 17:02 13.73327 -61.13380 1859 ft 161 kts 91°
2026-04-24 17:02 13.73329 -61.12233 1864 ft 159 kts 91°
2026-04-24 17:02 13.73330 -61.11099 1871 ft 158 kts 91°
2026-04-24 17:02 13.73330 -61.09969 1874 ft 158 kts 91°
2026-04-24 17:03 13.73331 -61.07721 1872 ft 155 kts 91°
2026-04-24 17:03 13.73331 -61.06600 1877 ft 158 kts 91°
2026-04-24 17:03 13.73331 -61.05470 1854 ft 158 kts 91°
2026-04-24 17:04 13.73330 -61.04348 1607 ft 156 kts 91°
2026-04-24 17:04 13.73330 -61.02216 1200 ft 142 kts 91°
2026-04-24 17:04 13.73329 -61.01210 998 ft 139 kts 91°
2026-04-24 17:05 13.73327 -61.00215 833 ft 140 kts 91°
2026-04-24 17:05 13.73328 -60.99217 645 ft 140 kts 92°
2026-04-24 17:05 13.73346 -60.97226 244 ft 138 kts 92°
2026-04-24 17:06 13.73341 -60.96248 53 ft 136 kts 92°
2026-04-24 17:06 13.73341 -60.94787 26 ft 59 kts 90°
2026-04-24 17:06 13.73342 -60.94582 25 ft 13 kts 88°
2026-04-24 17:07 13.73369 -60.94553 27 ft 8 kts 12°
2026-04-24 17:07 13.73442 -60.94576 30 ft 9 kts 335°
2026-04-24 17:07 13.73520 -60.94634 28 ft 4 kts 320°
2026-04-24 17:08 13.73566 -60.94699 28 ft 8 kts 279°
2026-04-24 17:08 13.73568 -60.94760 28 ft 9 kts 270°
2026-04-24 17:08 13.73568 -60.94820 28 ft 9 kts 270°
2026-04-24 17:09 13.73521 -60.94946 28 ft 11 kts 270°
2026-04-24 17:09 13.73521 -60.95010 28 ft 2 kts 270°
2026-04-24 17:10 13.73526 -60.95017 28 ft 1 kts 320°
2026-04-24 17:10 13.73578 -60.95025 28 ft 1 kts 358°
2026-04-24 17:11 13.73593 -60.95025 28 ft 0 kts 359°